This is the latest recevied weather packets stored in our database for station/object 9W3FAB-1. If no packets are shown the sender has not sent any weather packets the latest 10 day(s).
| Time | Temp. | Humidity | Pressure | Rain* | Wind** | Luminosity | Snow |
|---|---|---|---|---|---|---|---|
| 1777453302 | 30.56° C | 100% | 1004.6 hPa | - | - | - | - |
| 1777452401 | 31.11° C | 100% | 1004.5 hPa | - | - | - | - |
| 1777451500 | 31.11° C | 100% | 1004.3 hPa | - | - | - | - |
| 1777450599 | 31.67° C | 100% | 1004.7 hPa | - | - | - | - |
| 1777449698 | 31.67° C | 100% | 1004.4 hPa | - | - | - | - |
| 1777448797 | 31.67° C | 100% | 1004.3 hPa | - | - | - | - |
| 1777447896 | 31.67° C | 100% | 1004.5 hPa | - | - | - | - |
| 1777446996 | 32.22° C | 100% | 1004.7 hPa | - | - | - | - |
| 1777446095 | 31.67° C | 100% | 1004.7 hPa | - | - | - | - |
| 1777445194 | 32.22° C | 100% | 1005.1 hPa | - | - | - | - |
| 1777444293 | 32.22° C | 100% | 1005.4 hPa | - | - | - | - |
| 1777443392 | 31.67° C | 100% | 1005.5 hPa | - | - | - | - |
| 1777442491 | 31.11° C | 100% | 1005.8 hPa | - | - | - | - |
| 1777441591 | 31.67° C | 100% | 1006.1 hPa | - | - | - | - |
| 1777440689 | 31.67° C | 100% | 1006 hPa | - | - | - | - |
| 1777439789 | 31.67° C | 100% | 1006.3 hPa | - | - | - | - |
| 1777438888 | 31.11° C | 100% | 1006.7 hPa | - | - | - | - |
| 1777437987 | 30.56° C | 100% | 1007.1 hPa | - | - | - | - |
| 1777437086 | 30.56° C | 100% | 1007.4 hPa | - | - | - | - |
| 1777436185 | 31.11° C | 100% | 1007.6 hPa | - | - | - | - |
| 1777435284 | 30° C | 100% | 1007.9 hPa | - | - | - | - |
| 1777434383 | 30° C | 100% | 1008.1 hPa | - | - | - | - |
| 1777433482 | 30.56° C | 100% | 1008.4 hPa | - | - | - | - |
| 1777432582 | 30.56° C | 100% | 1008.6 hPa | - | - | - | - |
| 1777431681 | 30° C | 100% | 1008.7 hPa | - | - | - | - |
* Rain since midnight (hover to see other rain measurements)
** Current wind speed in m/s (hover to see current wind gust speed)